Regional Weather Roundup
Issued by NWS

Home | Current Version | Previous Version | Text Only | Print | Product List | Glossary Off
Versions: 1 2 3 4 5 6 7 8 9 10 11 12 13 14 15 16 17 18 19 20 21 22 23 24 25 26 27 28 29 30 31 32 33 34 35 36 37 38 39 40 41 42 43 44 45 46 47 48 49 50

000
ASUS43 KDMX 011907
RWRIA

WEATHER ROUNDUP FOR IOWA
NATIONAL WEATHER SERVICE DES MOINES IA
200 PM CDT MON SEP 01 2014

NOTE: "FAIR" INDICATES FEW OR NO CLOUDS BELOW 12,000 FEET WITH NO
SIGNIFICANT WEATHER AND/OR OBSTRUCTIONS TO VISIBILITY.

* - THESE STATIONS ARE NOT NWS STATIONS...THUS NOT UNDER NWS
QUALITY CONTROL.  THEY ALSO DO NOT REPORT WEATHER SUCH
AS PRECIPITATION OR FOG.

IAZ001>003-012>014-020>022-031>034-043>046-012000-
   NORTHWEST IOWA

CITY           SKY/WX    TMP DP  RH WIND       PRES   REMARKS
CARROLL *      MOSUNNY   75  64  69 W12G17    29.85S
CHEROKEE *     PTSUNNY   75  64  69 W9        29.85S
DENISON *      SUNNY     75  61  60 NW7G15    29.85S
LE MARS *      MOSUNNY   75  63  64 NW6       29.86S
ORANGE CITY *  MOSUNNY   79  61  53 W12       29.86R HX  80
SHELDON *      MOSUNNY   75  64  69 W8G14     29.84S
SIOUX CITY     MOSUNNY   78  62  57 VRB3      29.86S HX  80
SPENCER        MOSUNNY   76  60  57 W9        29.84R
STORM LAKE *   SUNNY     73  70  88 W7G15     29.86S
$$

IAZ055>058-069>071-079>083-090>094-012000-
   SOUTHWEST IOWA

CITY           SKY/WX    TMP DP  RH WIND       PRES   REMARKS
ATLANTIC *     MOSUNNY   77  64  65 NW12      29.86R
AUDUBON *      SUNNY     79  66  65 NW10      29.87S HX  81
CLARINDA *     PTSUNNY   77  64  65 W8        29.89R
COUNCIL BLFS * MOSUNNY   77  64  65 NW8       29.87R
CRESTON *      MOSUNNY   77  64  65 NW15G22   29.86S
HARLAN  *      MOSUNNY   75  64  69 NW13      29.90S
LAMONI         MOSUNNY   78  66  66 W15       29.86R HX  80
RED OAK *      SUNNY     77  63  61 W10       29.87R
SHENANDOAH *   MOSUNNY   77  64  65 W8        29.88S
$$

IAZ047>049-059>061-072>074-084-012000-
   CENTRAL IOWA

CITY           SKY/WX    TMP DP  RH WIND       PRES   REMARKS
AMES           MOSUNNY   76  63  64 W15G23    29.81R
ANKENY *       SUNNY     79  64  61 W15G23    29.81R HX  81
CHARITON *     MOSUNNY   79  66  65 W13G21    29.84R HX  81
DES MOINES     MOSUNNY   81  63  54 W18       29.81R HX  82
GRINNELL*      PTSUNNY   75  64  69 W13G18    29.81R
KNOXVILLE *    CLOUDY    79  66  65 W13       29.81R HX  81
MARSHALLTOWN   MOSUNNY   77  66  68 W20G25    29.79R
PELLA *        MOSUNNY   77  66  69 W10       29.82R
PERRY *          N/A     77  61  57 NW14      29.84R
$$

IAZ004>006-015-016-023>025-035-036-012000-
   NORTH CENTRAL IOWA

CITY           SKY/WX    TMP DP  RH WIND       PRES   REMARKS
ALGONA *       MOSUNNY   75  61  60 NW8G14    29.83R
CLARION *      MOSUNNY   77  63  61 NW12      29.81R
ESTHERVILLE    MOSUNNY   72  61  68 NW8       29.83R
FORT DODGE *   MOSUNNY   75  63  64 NW10      29.84R
MASON CITY     SUNNY     76  60  57 NW17      29.81R
FOREST CITY *  MOSUNNY   75  61  60 NW10      29.81R
IOWA FALLS *     N/A     75  64  69 W13G18    29.81S
$$

IAZ007>011-017>019-026>030-037>042-050>054-066-012000-
   NORTHEAST IOWA

CITY           SKY/WX    TMP DP  RH WIND       PRES   REMARKS
CEDAR RAPIDS   MOSUNNY   79  68  69 W15G21    29.77R HX  81
CHARLES CITY * MOSUNNY   72  64  78 W8        29.79S
CLINTON *        N/A     79  64  61 W13G21    29.79S HX  81
DECORAH *      PTSUNNY   70  66  88 VRB7G17   29.75S
DUBUQUE        PTSUNNY   77  66  68 W15       29.76F
MONTICELLO *   MOSUNNY   79  68  69 W14G20    29.76S HX  81
OELWEIN *      MOSUNNY   75  68  78 W15       29.77S
WATERLOO       PTSUNNY   78  65  63 W15G22    29.76R HX  80
$$

IAZ064-065-067-068-078-012000-
   EAST CENTRAL IOWA

CITY           SKY/WX    TMP DP  RH WIND       PRES   REMARKS
DAVENPORT      MOSUNNY   80  66  62 W15       29.79S HX  82
IOWA CITY      MOSUNNY   80  67  64 W14G24    29.79S HX  82
MT. PLEASANT * PTSUNNY   81  64  57 W12G17    29.81S HX  82
MUSCATINE *    MOSUNNY   82  68  61 W13G22    29.79S HX  85
QUAD CITIES    MOSUNNY   81  65  58 SW14G21   29.78S HX  83
$$

IAZ062-063-075>077-085>089-095>099-012000-
   SOUTHEAST IOWA

CITY           SKY/WX    TMP DP  RH WIND       PRES   REMARKS
BURLINGTON     LGT RAIN  80  67  64 W10G16    29.82S HX  82
FAIRFIELD *    PTSUNNY   79  66  65 SW9G18    29.82R HX  81
FORT MADISON * MOSUNNY   81  66  61 SW10G16   29.83S HX  83
KEOKUK *       MOSUNNY   79  68  69 SW14G21   29.83F HX  81
OSKALOOSA *      N/A     79  68  69 W14G20    29.82R HX  81
CENTERVILLE *  MOSUNNY   77  68  73 W12       29.86R
OTTUMWA        PTSUNNY   77  66  68 W14G21    29.80S
WASHINGTON *   PTSUNNY   79  68  69 W13       29.81R HX  81
$$

ABBREVIATIONS USED IN REMARKS
   TC - TEMPERATURES IN CELSIUS
  WCI - WIND CHILL INDEX
   HX - HEAT INDEX
  VSB - VISIBILITY
$$



USA.gov is the U.S. government's official web portal to all federal, state and local government web resources and services.